Regional Weather Roundup
Issued by NWS

Home | Current Version | Previous Version | Text Only | Print | Product List | Glossary On
Versions: 1 2 3 4 5 6 7 8 9 10 11 12 13 14 15 16 17 18 19 20 21 22 23 24 25 26 27 28 29 30 31 32 33 34 35 36 37 38 39 40 41 42 43 44 45 46 47 48 49 50
000
ASUS44 KLIX 172012
RWRLA
LOUISIANA WEATHER ROUNDUP
NATIONAL WEATHER SERVICE NEW ORLEANS LA
200 PM CST SAT FEB 17 2018

NOTE: "FAIR" INDICATES FEW OR NO CLOUDS BELOW 12,000 FEET WITH NO
      SIGNIFICANT WEATHER AND/OR OBSTRUCTIONS TO VISIBILITY.
      SKY/WX - SKY CONDITION AND SIGNIFICANT WEATHER.
      TMP - AIR TEMPERATURE.    DP   - DEWPOINT TEMPERATURE.
      RH  - RELATIVE HUMIDITY.  PRES - PRESSURE.
      HX  - HEAT INDEX.         WCI  - WIND CHILL INDEX.

*  THESE STATIONS ARE NOT NWS OR FAA STATIONS AND ARE NOT UNDER
   NWS QUALITY CONTROL.

LAZ040-048-061>063-065-066-069-172100-
SOUTHEAST LOUISIANA

CITY           SKY/WX    TMP DP  RH WIND       PRES   REMARKS
N.O. INTL ARPT PTSUNNY   81  64  56 W8        30.11F
N.O. LAKEFRONT CLOUDY    77  60  55 SW17G25   30.11F
N.O. DOWNTOWN* MOCLDY    81  63  54 S12G18    30.12F
RESERVE*       MOCLDY    81  61  49 W14G23    30.11F
SLIDELL        FAIR      80  60  50 SW9       30.11F
BATON ROUGE    PTSUNNY   79  61  53 W14       30.10F
BOOTHVILLE     NOT AVBL
BELLE CHASSE   PTSUNNY   81  65  58 SW16G25   30.11F
BOGALUSA*      MOCLDY    80  62  53 SW10G16   30.11F
GALLIANO*      FAIR      79  64  61 SW15      30.14S
NEW ROADS*     CLOUDY    77  63  61 SW8       30.10F
GONZALES*      NOT AVBL
HAMMOND*       FAIR      81  61  50 SE12G17   30.10F
HOUMA*         MOSUNNY   81  64  57 SW12G20   30.12F
PORT FOURCHON* CLEAR     77  66  69 SW12      30.14S

$$

LAZ041-044-053-054-172100-
SOUTHWEST LOUISIANA

CITY           SKY/WX    TMP DP  RH WIND       PRES   REMARKS
LAKE CHARLES   PTSUNNY   77  68  73 SW12G20   30.08F
LAFAYETTE      CLOUDY    76  67  73 SW14      30.11F
PATTERSON      PTSUNNY   77  66  68 SW18      30.13F
SALT POINT       N/A     73  68  84 VRB5      30.12F
NEW IBERIA     PTSUNNY   78  64  61 SW12      30.12F
CHENAULT AIRPK PTSUNNY   79  66  65 SW13      30.09F

$$

LAZ027-028-172100-
CENTRAL LOUISIANA

CITY           SKY/WX    TMP DP  RH WIND       PRES   REMARKS
FORT POLK      FAIR      74  66  76 S10       30.05F
ALEXANDRIA INT CLOUDY    71  66  84 S8        30.04F
ALEXANDRIA     CLOUDY    74  65  73 SW9       30.06F

$$

LAZ001-002-172100-
NORTHWEST LOUISIANA

CITY           SKY/WX    TMP DP  RH WIND       PRES   REMARKS
SHREVEPORT     LGT RAIN  52  51  97 S5        30.11F FOG
BARKSDALE AFB  LGT RAIN  52  52 100 S3        30.12S
DTN SHREVEPORT LGT RAIN N/A N/A N/A CALM      30.12F FOG

$$

LAZ014-016-172100-
NORTHEAST LOUISIANA

CITY           SKY/WX    TMP DP  RH WIND       PRES   REMARKS
MONROE         CLOUDY    54  51  90 N10       30.12S
TALLULAH       PTSUNNY   72  65  78 W8        30.08F

$$





USA.gov is the U.S. government's official web portal to all federal, state and local government web resources and services.